Moab, UT

3:33 PM MDT on August 20, 2017 (GMT -0600)
Canyonlands

Weather History for KCNY - November, 2011

Change the Weather History Date:

Saturday, November 12, 2011

  Actual Average Record
Temperature  
Mean Temperature 44 °F 40 °F  
Max Temperature 55 °F 52 °F 75 °F (1989)
Min Temperature 32 °F 28 °F 12 °F (2012)
Degree Days  
Heating Degree Days 22 25  
Month to date heating degree days 264  
Since 1 July heating degree days 683  
Cooling Degree Days 0 0  
Month to date cooling degree days 0  
Year to date cooling degree days 1289  
Moisture  
Dew Point 26 °F    
Average Humidity 59    
Maximum Humidity 85    
Minimum Humidity 23    
Precipitation  
Precipitation 0.00 in 0.02 in 0.42 in (1978)
Month to date precipitation 0.28  
Year to date precipitation 7.79  
Sea Level Pressure  
Sea Level Pressure 29.81 in    
Wind  
Wind Speed 5 mph (WSW)    
Max Wind Speed 30 mph    
Max Gust Speed 36 mph    
Visibility 10 miles    
Events      
T = Trace of Precipitation, MM = Missing Value Source: NWS Daily Summary

Daily Weather History Graph

Daily Weather History Graph

Search for Another Location

Airport or City:

Trip Planner

Search our weather history database for the weather conditions in past years. The results will help you decide how hot, cold, wet, or windy it might be!

Date:

Astronomy

Nov. 12, 2011 Rise Set
Actual Time 6:57 AM MST 5:08 PM MST
Civil Twilight 6:29 AM MST 5:36 PM MST
Nautical Twilight 5:57 AM MST 6:08 PM MST
Astronomical Twilight 5:26 AM MST 6:39 PM MST
Moon 6:27 PM MST (11/12) 8:41 AM MST (11/12)
Length of Visible Light 11h 06m
Length of Day
10h 10m
Waning Gibbous, 97% of the Moon is Illuminated
Nov 12
Waning Gibbous
Nov 18
Last Quarter
Nov 24
New
Dec 2
First Quarter
Dec 10
Full

Hourly Weather History & Observations

Time (MST) Temp. Windchill Dew Point Humidity Pressure Visibility Wind Dir Wind Speed Gust Speed Precip Events Conditions
12:53 AM 34.0 °F - 28.0 °F 79% 29.91 in 10.0 mi Calm Calm - N/A   Overcast
1:53 AM 34.0 °F - 28.0 °F 79% 29.91 in 10.0 mi Calm Calm - N/A   Overcast
2:53 AM 33.1 °F 28.7 °F 28.0 °F 82% 29.91 in 10.0 mi WNW 4.6 mph - N/A   Overcast
3:53 AM 35.1 °F - 28.0 °F 76% 29.88 in 10.0 mi Calm Calm - N/A   Overcast
4:53 AM 32.0 °F 28.7 °F 28.0 °F 85% 29.88 in 10.0 mi West 3.5 mph - N/A   Mostly Cloudy
5:53 AM 33.1 °F - 26.1 °F 75% 29.88 in 10.0 mi Calm Calm - N/A   Partly Cloudy
6:53 AM 33.1 °F - 27.0 °F 78% 29.86 in 10.0 mi Calm Calm - N/A   Overcast
7:53 AM 34.0 °F - 28.9 °F 82% 29.86 in 10.0 mi Calm Calm - N/A   Overcast
8:53 AM 36.0 °F 29.0 °F 27.0 °F 70% 29.87 in 10.0 mi NNW 9.2 mph - N/A   Scattered Clouds
9:53 AM 37.9 °F 32.1 °F 28.9 °F 70% 29.86 in 10.0 mi NNW 8.1 mph - N/A   Overcast
10:53 AM 37.9 °F 32.1 °F 28.9 °F 70% 29.86 in 10.0 mi NNW 8.1 mph - N/A   Mostly Cloudy
11:53 AM 42.1 °F - 28.0 °F 58% 29.81 in 10.0 mi Calm Calm - N/A   Scattered Clouds
12:53 PM 43.0 °F 37.2 °F 30.0 °F 60% 29.76 in 10.0 mi NNW 10.4 mph - N/A   Overcast
1:53 PM 55.0 °F - 18.0 °F 23% 29.67 in 10.0 mi SSW 29.9 mph 35.7 mph N/A   Mostly Cloudy
2:53 PM 55.9 °F - 18.0 °F 23% 29.66 in 10.0 mi SW 20.7 mph 31.1 mph N/A   Mostly Cloudy
3:53 PM 55.4 °F - 21.2 °F 26% 29.70 in 10.0 mi SW 18.4 mph - N/A   Overcast
4:53 PM 53.1 °F - 21.9 °F 30% 29.69 in 10.0 mi SSW 13.8 mph - N/A   Mostly Cloudy
5:53 PM 50.0 °F - 23.0 °F 35% 29.71 in 10.0 mi SSW 15.0 mph - N/A   Clear
6:53 PM 46.9 °F - 25.0 °F 42% 29.75 in 10.0 mi SW 10.4 mph - N/A   Clear
7:53 PM 46.9 °F - 25.0 °F 42% 29.76 in 10.0 mi SW 10.4 mph - N/A   Clear
8:53 PM 44.1 °F 39.0 °F 26.1 °F 49% 29.80 in 10.0 mi SSW 9.2 mph - N/A   Mostly Cloudy
9:53 PM 42.1 °F 39.2 °F 26.1 °F 53% 29.81 in 10.0 mi WNW 4.6 mph - N/A   Clear
10:53 PM 39.0 °F - 26.1 °F 60% 29.81 in 10.0 mi Calm Calm - N/A   Clear
11:53 PM 39.9 °F 37.8 °F 26.1 °F 58% 29.81 in 10.0 mi Variable 3.5 mph - N/A   Clear